Previsão horária em Allendorf

Hoje, 25 Janeiro, Segunda-feira

Tempo Temperatura Precipitação Vento Pressão Humidade
00:00 -3°C° 0 mm 1 m/s 714 mmHg 95%
01:00 -3°C° 0 mm 1 m/s 714 mmHg 95%
02:00 -3°C° 0 mm 1 m/s 714 mmHg 95%
03:00 -3°C° 0 mm 1 m/s 714 mmHg 94%
04:00 -4°C° 0 mm 0 m/s 714 mmHg 94%
05:00 -4°C° 0 mm 0 m/s 714 mmHg 94%
06:00 -3°C° 0 mm 0 m/s 714 mmHg 94%
07:00 -3°C° 0 mm 0 m/s 715 mmHg 94%
08:00 -2°C° 0 mm 1 m/s 719 mmHg 84%
09:00 -1°C° 0 mm 1 m/s 720 mmHg 82%
10:00 0°C° 0 mm 1 m/s 720 mmHg 80%
11:00 -2°C° 0 mm 2 m/s 720 mmHg 77%
12:00 -1°C° 0 mm 3 m/s 720 mmHg 74%
13:00 0°C° 0 mm 3 m/s 721 mmHg 71%
14:00 0°C° 0 mm 3 m/s 720 mmHg 72%
15:00 -1°C° 0 mm 3 m/s 720 mmHg 73%
16:00 -1°C° 0 mm 3 m/s 720 mmHg 74%
17:00 -2°C° 0.1 mm 2 m/s 720 mmHg 81%
18:00 -2°C° 0.1 mm 2 m/s 721 mmHg 87%
19:00 -1°C° 0.1 mm 1 m/s 721 mmHg 94%
20:00 -3°C° 0.1 mm 2 m/s 721 mmHg 94%
21:00 -3°C° 0.1 mm 2 m/s 722 mmHg 94%
22:00 -2°C° 0.1 mm 2 m/s 722 mmHg 94%
23:00 -2°C° 0.1 mm 2 m/s 722 mmHg 93%

Amanhã, 26 Janeiro, Terça-feira

Tempo Temperatura Precipitação Vento Pressão Humidade
00:00 -2°C° 0.1 mm 2 m/s 722 mmHg 93%
01:00 -2°C° 0.1 mm 2 m/s 722 mmHg 92%
02:00 -2°C° 0.1 mm 2 m/s 723 mmHg 92%
03:00 -3°C° 0.1 mm 2 m/s 723 mmHg 91%
04:00 -3°C° 0.1 mm 2 m/s 723 mmHg 91%
05:00 -3°C° 0 mm 2 m/s 724 mmHg 92%
06:00 -1°C° 0 mm 1 m/s 724 mmHg 93%
07:00 -1°C° 0 mm 1 m/s 724 mmHg 94%
08:00 -1°C° 0.2 mm 1 m/s 725 mmHg 93%
09:00 0°C° 0.2 mm 1 m/s 725 mmHg 93%
10:00 -2°C° 0.2 mm 2 m/s 725 mmHg 92%
11:00 -1°C° 0.1 mm 2 m/s 726 mmHg 90%
12:00 0°C° 0.1 mm 3 m/s 726 mmHg 87%
13:00 0°C° 0.1 mm 3 m/s 726 mmHg 84%
14:00 0°C° 0 mm 3 m/s 726 mmHg 85%
15:00 0°C° 0 mm 3 m/s 726 mmHg 86%
16:00 0°C° 0 mm 3 m/s 726 mmHg 87%
17:00 -1°C° 0 mm 3 m/s 725 mmHg 89%
18:00 -1°C° 0 mm 3 m/s 725 mmHg 90%
19:00 -1°C° 0 mm 3 m/s 725 mmHg 91%
20:00 -2°C° 0 mm 4 m/s 724 mmHg 91%
21:00 -2°C° 0 mm 4 m/s 724 mmHg 92%
22:00 -2°C° 0 mm 4 m/s 723 mmHg 92%
23:00 -2°C° 1 mm 4 m/s 722 mmHg 93%

Depois de amanhã, 27 Janeiro, Quarta-feira

Tempo Temperatura Precipitação Vento Pressão Humidade
00:00 -2°C° 1 mm 4 m/s 721 mmHg 95%
01:00 -2°C° 1 mm 5 m/s 720 mmHg 97%
02:00 -1°C° 1.1 mm 5 m/s 720 mmHg 97%
03:00 0°C° 1.1 mm 5 m/s 719 mmHg 97%
04:00 +1°C° 1.1 mm 4 m/s 718 mmHg 96%
05:00 +1°C° 0.7 mm 5 m/s 718 mmHg 96%
06:00 +1°C° 0.7 mm 5 m/s 719 mmHg 96%
07:00 +1°C° 0.7 mm 5 m/s 719 mmHg 95%
08:00 +1°C° 1 mm 6 m/s 720 mmHg 95%
09:00 +1°C° 1 mm 6 m/s 720 mmHg 95%
10:00 +1°C° 1 mm 6 m/s 721 mmHg 95%
11:00 +1°C° 0.2 mm 6 m/s 722 mmHg 94%
12:00 +1°C° 0.2 mm 5 m/s 723 mmHg 94%
13:00 +1°C° 0.2 mm 5 m/s 724 mmHg 93%
14:00 +1°C° 0.2 mm 5 m/s 724 mmHg 93%
15:00 +1°C° 0.2 mm 4 m/s 725 mmHg 94%
16:00 +1°C° 0.2 mm 4 m/s 725 mmHg 94%
17:00 +1°C° 0 mm 4 m/s 725 mmHg 94%
18:00 +2°C° 0 mm 3 m/s 726 mmHg 94%
19:00 +1°C° 0 mm 3 m/s 726 mmHg 94%
20:00 +1°C° 0 mm 3 m/s 726 mmHg 94%
21:00 +1°C° 0 mm 3 m/s 726 mmHg 94%
22:00 +1°C° 0 mm 3 m/s 726 mmHg 94%
23:00 +1°C° 0 mm 3 m/s 726 mmHg 95%

28 Janeiro, Quinta-feira

Tempo Temperatura Precipitação Vento Pressão Humidade
00:00 +2°C° 0 mm 3 m/s 725 mmHg 96%
01:00 +2°C° 0 mm 3 m/s 725 mmHg 96%
02:00 +1°C° 0 mm 4 m/s 724 mmHg 96%
03:00 +1°C° 0 mm 4 m/s 724 mmHg 95%
04:00 +1°C° 0 mm 4 m/s 723 mmHg 95%
05:00 +1°C° 0.8 mm 4 m/s 722 mmHg 95%
06:00 +3°C° 0.8 mm 4 m/s 721 mmHg 96%
07:00 +2°C° 0.8 mm 5 m/s 720 mmHg 96%
08:00 +2°C° 0.6 mm 5 m/s 720 mmHg 95%
09:00 +3°C° 0.6 mm 5 m/s 720 mmHg 95%
10:00 +5°C° 0.6 mm 5 m/s 719 mmHg 94%
11:00 +4°C° 0.1 mm 6 m/s 719 mmHg 90%
12:00 +5°C° 0.1 mm 6 m/s 720 mmHg 86%
13:00 +5°C° 0.1 mm 7 m/s 720 mmHg 82%
14:00 +5°C° 0.2 mm 6 m/s 719 mmHg 85%
15:00 +5°C° 0.2 mm 5 m/s 719 mmHg 89%
16:00 +4°C° 0.2 mm 4 m/s 719 mmHg 93%
17:00 +4°C° 0.1 mm 4 m/s 719 mmHg 92%
18:00 +4°C° 0.1 mm 4 m/s 720 mmHg 92%
19:00 +4°C° 0.1 mm 4 m/s 720 mmHg 91%

29 Janeiro, Sexta-feira

Tempo Temperatura Precipitação Vento Pressão Humidade

30 Janeiro, Sábado

Tempo Temperatura Precipitação Vento Pressão Humidade
Mostrar mais

Necessitamos do seu Consentimento

A Meteoprog e os seus Fornecedores de Serviços podem armazenar e aceder a dados pessoais como cookies, identificadores do dispositivo ou outras tecnologias semelhantes existentes no seu dispositivo e processar estes dados para personalizar conteúdos e anúncios, assim como funcionalidades nas redes sociais e análise de tráfego.

  • Armazenar e/ou aceder a informações no seu dispositivo

    Os cookies, identificadores do dispositivo ou outras informações podem ser armazenados ou acedidos no seu dispositivo, para os fins acima indicados.

  • Anúncios e conteúdos personalizados, medição de anúncios e conteúdos, dados sobre o público-alvo e desenvolvimento de produtos

    Os anúncios e os conteúdos podem ser personalizados com base num perfil. Podem ser adicionados dados adicionais para uma maior personalização dos anúncios e dos conteúdos. A eficácia dos anúncios e dos conteúdos pode ser medida. Podem ser obtidas informações sobre o público que visualizou os anúncios e os conteúdos. Estes dados podem ser usados para desenvolver ou melhorar sistemas, softwares ou a experiência do utilizador.

Ao clicar em "Eu concordo”, permitirá o uso de cookies, identificadores do dispositivo e web beacons mencionados ou outras tecnologias semelhantes. As configurações do navegador do seu dispositivo podem ser alteradas.

Para certos fins, podem ser invocados interesses legítimos ao invés de consentimento. Pode ler mais informação sobre este assunto na nossa Política de Privacidade e Cookies.